Starlink 31850

operational
NORAD ID: 59903 Int'l Des: 2024-100 Owner: SPXS Country: US Constellation: starlink
LEOCIRCULAR

Starlink 31850について

説明を読み込み中...

リアルタイム位置

3D地球を読み込み中...

次回通過

高度履歴

Altitude vs Time

uPlot chart will show altitude changes over time

軌道要素

1 59903U 24100U 25260.04679312 -.00001121 00000-0 -31193-4 0 9998
2 59903 43.0043 25.7497 0001476 273.5867 86.4816 15.27594962 74545
Epoch: Sep 17, 2025 • Age: 26 hours

現在のステータス

高度 484.9 km
速度 7.63 km/s
衛星直下点 32.49°N, 117.81°E
打ち上げ日 May 28, 2024
運用期間 1.3 years
タイプ internet

技術仕様

分類 Payload
質量 730.00 kg
乾燥質量 700.00 kg
総質量 730.00 kg
長さ 0.30 m
直径 4.10 m
スパン 29.00 m
形状 Box + pan
製造者 SPXS
バスタイプ Starlink V2M
フェーズステータス In Orbit
所有者/国 SPXS/US

大規模コンステレーション

Loading constellations...